Regional Weather Roundup
Issued by NWS

Home | Current Version | Previous Version | Graphics & Text | Print | Product List | Glossary On
Versions: 1 2 3 4 5 6 7 8 9 10 11 12 13 14 15 16 17 18 19 20 21 22 23 24 25 26 27 28 29 30 31 32 33 34 35 36 37 38 39 40 41 42 43 44 45 46 47 48 49 50
000
ASUS43 KOAX 071410
RWRNE

WEATHER ROUNDUP FOR NEBRASKA
NATIONAL WEATHER SERVICE OMAHA NE
900 AM CDT TUE JUL 07 2015

NOTES: SATELLITE DATA IS BEING USED TO AUGMENT CLOUD COVER ABOVE
       12000 FEET.
       "FAIR" INDICATES FEW OR NO CLOUDS BELOW 12,000 FEET WITH NO
       SIGNIFICANT WEATHER AND/OR OBSTRUCTIONS TO VISIBILITY.

  * THESE STATIONS DO NOT REPORT WEATHER SUCH AS RAIN...SNOW OR FOG.

NEZ001>004-019>022-054>056-071500-
NEBRASKA PANHANDLE

CITY           SKY/WX    TMP DP  RH WIND       PRES   REMARKS
SCOTTSBLUFF    CLOUDY    63  55  75 SE12      30.19S HAZE
ALLIANCE       PTSUNNY   62  56  80 S12       30.21S HAZE
CHADRON        CLOUDY    64  55  72 S9        30.17S
KIMBALL          N/A    N/A N/A N/A MISG        N/A
SIDNEY         CLOUDY    60  52  74 S16G22    30.25R HAZE
$$

NEZ057>060-069>072-079>082-071500-
SOUTHWEST NEBRASKA

CITY           SKY/WX    TMP DP  RH WIND       PRES   REMARKS
NORTH PLATTE   SUNNY     61  54  77 E7        30.23R
IMPERIAL       CLOUDY    62  53  72 SE7       30.25R
LEXINGTON      SUNNY     62  56  80 E5        30.23R HAZE
MCCOOK         SUNNY     61  55  81 E6        30.23R HAZE
OGALLALA       SUNNY     63  54  73 S7        30.24S
$$

NEZ005>010-023>029-035>040-094-071500-
NORTH CENTRAL NEBRASKA

CITY           SKY/WX    TMP DP  RH WIND       PRES   REMARKS
VALENTINE      SUNNY     61  58  90 CALM      30.19S
AINSWORTH      SUNNY     62  55  75 SE7       30.21S
BROKEN BOW     SUNNY     62  56  80 CALM      30.22R HAZE
O`NEILL        CLOUDY    60  57  89 E9        30.22R FOG
ORD            SUNNY     60  55  83 E5        30.20R HAZE
THEDFORD       SUNNY     62  56  80 SW6       30.23R HAZE
$$

NEZ041-046>049-061>064-073>077-083>087-071500-
SOUTH CENTRAL NEBRASKA

CITY           SKY/WX    TMP DP  RH WIND       PRES   REMARKS
GRAND ISLAND   SUNNY     60  53  77 NE9       30.21R
AURORA         SUNNY     60  54  80 NE12      30.20R
HASTINGS       SUNNY     60  52  74 E12G18    30.20R
HEBRON         SUNNY     62  49  63 NE16      30.17R
HOLDREGE       SUNNY     60  54  80 NE7       30.21S
KEARNEY *      MOSUNNY   61  54  77 E6        30.22R
YORK           SUNNY     59  54  82 NE12      30.20R
$$

NEZ011>018-030>034-042>045-071500-
NORTHEAST NEBRASKA

CITY           SKY/WX    TMP DP  RH WIND       PRES   REMARKS
NORFOLK        PTSUNNY   62  51  67 E6        30.21R
ALBION         SUNNY     60  51  70 NE9       30.21R
BLAIR          SUNNY     60  47  64 N14       30.17R
FREMONT        SUNNY     62  49  63 N7        30.19S
TEKAMAH        SUNNY     63  51  65 N12       30.18R
WAYNE          PTSUNNY   59  53  79 NE7       30.21S
$$

NEZ050>053-065>068-078-088>093-071500-
SOUTHEAST NEBRASKA

CITY           SKY/WX    TMP DP  RH WIND       PRES   REMARKS
LINCOLN        SUNNY     62  50  64 NE16      30.17S
OMAHA EPPLEY   MOSUNNY   62  49  62 N13       30.16S
BEATRICE       SUNNY     61  50  67 NE16G22   30.15S
FALLS CITY     MOSUNNY   62  51  67 N12       30.11R
NEBRASKA CITY  SUNNY     61  45  55 N17       30.14R
PLATTSMOUTH    SUNNY     60  46  59 N14G20    30.15S
$$

NEZ044-045-051>053-067-071500-
OMAHA AREA

CITY           SKY/WX    TMP DP  RH WIND       PRES   REMARKS
OMAHA EPPLEY   MOSUNNY   62  49  62 N13       30.16S
BLAIR          SUNNY     60  47  64 N14       30.17R
FREMONT        SUNNY     62  49  63 N7        30.19S
MILLARD        SUNNY     62  48  59 NE7       30.17R
OFFUTT AFB     SUNNY     62  47  58 N14G21    30.14S
PLATTSMOUTH    SUNNY     60  46  59 N14G20    30.15S
WAHOO          FAIR      62  51  66 NE12      30.17S
$$



USA.gov is the U.S. government's official web portal to all federal, state and local government web resources and services.